| time (UTC) | temp F | wind direction | speed knots | gust knots | rain 1hr in | rain 24hr in | rain mn in | humidity % | barometer mb |
| 20260502194521 | 82 | 225 | 9.6 | 14.8 | 0.00 | 0.00 | 0.00 | 100 | 1010.5 |
| 20260502194020 | 82 | 252 | 6.1 | 17.4 | 0.00 | 0.00 | 0.00 | 100 | 1010.5 |
| 20260502193522 | 82 | 244 | 11.3 | 17.4 | 0.00 | 0.00 | 0.00 | 100 | 1010.6 |
| 20260502193019 | 83 | 252 | 6.1 | 13.0 | 0.00 | 0.00 | 0.00 | 100 | 1010.7 |
| 20260502192518 | 82 | 227 | 4.3 | 12.2 | 0.00 | 0.00 | 0.00 | 100 | 1010.9 |
| 20260502192018 | 81 | 252 | 6.1 | 15.6 | 0.00 | 0.00 | 0.00 | 100 | 1010.9 |
| 20260502191522 | 81 | 248 | 9.6 | 15.6 | 0.00 | 0.00 | 0.00 | 100 | 1011.1 |
| 20260502191016 | 81 | 274 | 3.5 | 13.9 | 0.00 | 0.00 | 0.00 | 100 | 1011.1 |
| 20260502190516 | 81 | 217 | 6.1 | 14.8 | 0.00 | 0.00 | 0.00 | 100 | 1011.2 |
| 20260502190016 | 80 | 257 | 5.2 | 16.5 | 0.00 | 0.00 | 0.00 | 100 | 1011.4 |
| 20260502185516 | 80 | 239 | 10.4 | 16.5 | 0.00 | 0.00 | 0.00 | 100 | 1011.5 |
| 20260502185014 | 81 | 218 | 5.2 | 9.6 | 0.00 | 0.00 | 0.00 | 100 | 1011.7 |
| 20260502184513 | 81 | 260 | 5.2 | 9.6 | 0.00 | 0.00 | 0.00 | 100 | 1011.8 |
| 20260502184013 | 81 | 240 | 2.6 | 9.6 | 0.00 | 0.00 | 0.00 | 100 | 1011.8 |
| 20260502183512 | 82 | 317 | 3.5 | 11.3 | 0.00 | 0.00 | 0.00 | 100 | 1012.0 |
| 20260502183012 | 83 | 184 | 3.5 | 11.3 | 0.00 | 0.00 | 0.00 | 100 | 1012.1 |
| 20260502182511 | 83 | 169 | 3.5 | 8.7 | 0.00 | 0.00 | 0.00 | 100 | 1012.1 |
| 20260502182010 | 82 | 115 | 4.3 | 8.7 | 0.00 | 0.00 | 0.00 | 100 | 1012.3 |
| 20260502181509 | 83 | 264 | 2.6 | 7.8 | 0.00 | 0.00 | 0.00 | 100 | 1012.2 |
| 20260502181011 | 82 | 271 | 2.6 | 9.6 | 0.00 | 0.00 | 0.00 | 100 | 1012.4 |
| 20260502180507 | 81 | 155 | 4.3 | 9.6 | 0.00 | 0.00 | 0.00 | 100 | 1012.5 |
| 20260502164053 | 76 | 209 | 5.2 | 13.9 | 0.00 | 0.00 | 0.00 | 100 | 1014.2 |
| 20260502163553 | 76 | 277 | 7.0 | 13.9 | 0.00 | 0.00 | 0.00 | 100 | 1014.2 |
| 20260502163058 | 76 | 115 | 4.3 | 10.4 | 0.00 | 0.00 | 0.00 | 100 | 1014.4 |
| 20260502162552 | 76 | 126 | 3.5 | 10.4 | 0.00 | 0.00 | 0.00 | 100 | 1014.6 |
| 20260502162052 | 76 | 128 | 5.2 | 11.3 | 0.00 | 0.00 | 0.00 | 100 | 1014.7 |
| 20260502161551 | 76 | 165 | 6.1 | 11.3 | 0.00 | 0.00 | 0.00 | 100 | 1014.8 |
| 20260502161048 | 75 | 158 | 2.6 | 10.4 | 0.00 | 0.00 | 0.00 | 100 | 1014.8 |
| 20260502160547 | 75 | 279 | 2.6 | 9.6 | 0.00 | 0.00 | 0.00 | 100 | 1015.0 |
| 20260502152039 | 72 | 170 | 2.6 | 7.0 | 0.00 | 0.00 | 0.00 | 100 | 1015.4 |
| 20260502151548 | 71 | 161 | 0.9 | 8.7 | 0.00 | 0.00 | 0.00 | 100 | 1015.4 |
| 20260502151037 | 71 | 257 | 4.3 | 8.7 | 0.00 | 0.00 | 0.00 | 100 | 1015.4 |
| 20260502150535 | 71 | 225 | 2.6 | 7.8 | 0.00 | 0.00 | 0.00 | 100 | 1015.4 |
| 20260502130508 | 63 | 135 | 3.5 | 7.0 | 0.00 | 0.00 | 0.00 | 100 | 1015.1 |
| 20260502123501 | 62 | 140 | 1.7 | 6.1 | 0.00 | 0.00 | 0.00 | 100 | 1014.7 |
| 20260502123101 | 61 | 130 | 1.7 | 5.2 | 0.00 | 0.00 | 0.00 | 100 | 1014.7 |
| 20260502122604 | 61 | 165 | 3.5 | 7.8 | 0.00 | 0.00 | 0.00 | 100 | 1014.7 |
| 20260502122057 | 61 | 138 | 2.6 | 7.8 | 0.00 | 0.00 | 0.00 | 100 | 1014.6 |
| 20260502121557 | 61 | 153 | 2.6 | 7.0 | 0.00 | 0.00 | 0.00 | 100 | 1014.5 |
| 20260502121058 | 61 | 155 | 2.6 | 7.8 | 0.00 | 0.00 | 0.00 | 100 | 1014.5 |
| 20260502120556 | 61 | 134 | 3.5 | 8.7 | 0.00 | 0.00 | 0.00 | 100 | 1014.3 |
| 20260502115554 | 61 | 210 | 5.2 | 10.4 | 0.00 | 0.00 | 0.00 | 100 | 1014.4 |
| 20260502115053 | 61 | 184 | 4.3 | 10.4 | 0.00 | 0.00 | 0.00 | 100 | 1014.2 |
| 20260502114552 | 61 | 218 | 6.1 | 12.2 | 0.00 | 0.00 | 0.00 | 100 | 1014.2 |
| 20260502114052 | 61 | 188 | 5.2 | 12.2 | 0.00 | 0.00 | 0.00 | 100 | 1014.2 |
| 20260502113551 | 61 | 195 | 5.2 | 9.6 | 0.00 | 0.00 | 0.00 | 100 | 1014.2 |
| 20260502113102 | 61 | 188 | 6.1 | 9.6 | 0.00 | 0.00 | 0.00 | 100 | 1014.2 |
| 20260502112551 | 61 | 198 | 6.1 | 12.2 | 0.00 | 0.00 | 0.00 | 100 | 1014.1 |
| 20260502112052 | 61 | 194 | 7.0 | 11.3 | 0.00 | 0.00 | 0.00 | 100 | 1014.1 |
| 20260502111550 | 61 | 183 | 7.0 | 11.3 | 0.00 | 0.00 | 0.00 | 100 | 1014.1 |
| 20260502111052 | 60 | 199 | 4.3 | 9.6 | 0.00 | 0.00 | 0.00 | 100 | 1014.0 |
| 20260502110550 | 60 | 196 | 5.2 | 8.7 | 0.00 | 0.00 | 0.00 | 100 | 1014.0 |
| 20260502110050 | 60 | 213 | 4.3 | 8.7 | 0.00 | 0.00 | 0.00 | 100 | 1014.0 |
| 20260502105550 | 60 | 173 | 5.2 | 8.7 | 0.00 | 0.00 | 0.00 | 100 | 1013.9 |
| 20260502105050 | 60 | 213 | 3.5 | 13.0 | 0.00 | 0.00 | 0.00 | 100 | 1013.7 |
| 20260502104601 | 60 | 169 | 5.2 | 13.0 | 0.00 | 0.00 | 0.00 | 100 | 1013.7 |
| 20260502104050 | 60 | 199 | 5.2 | 11.3 | 0.00 | 0.00 | 0.00 | 100 | 1013.7 |
| 20260502103550 | 60 | 205 | 7.0 | 9.6 | 0.00 | 0.00 | 0.00 | 100 | 1013.7 |
| 20260502103050 | 60 | 168 | 7.0 | 13.0 | 0.00 | 0.00 | 0.00 | 100 | 1013.6 |
| 20260502102554 | 60 | 185 | 7.0 | 13.0 | 0.00 | 0.00 | 0.00 | 100 | 1013.5 |
| 20260502102049 | 60 | 216 | 7.0 | 13.0 | 0.00 | 0.00 | 0.00 | 100 | 1013.6 |
| 20260502101604 | 60 | 156 | 7.0 | 11.3 | 0.00 | 0.00 | 0.00 | 100 | 1013.5 |
| 20260502101048 | 60 | 179 | 7.0 | 11.3 | 0.00 | 0.00 | 0.00 | 100 | 1013.5 |
| 20260502100549 | 60 | 167 | 7.0 | 11.3 | 0.00 | 0.00 | 0.00 | 100 | 1013.5 |
| 20260502091046 | 60 | 229 | 7.0 | 13.0 | 0.00 | 0.00 | 0.00 | 100 | 1013.0 |
| 20260502090546 | 60 | 200 | 7.8 | 12.2 | 0.00 | 0.00 | 0.00 | 100 | 1013.1 |
| 20260502071532 | 61 | 177 | 4.3 | 13.9 | 0.00 | 0.00 | 0.00 | 100 | 1013.7 |
| 20260502071031 | 60 | 188 | 6.1 | 13.9 | 0.00 | 0.00 | 0.00 | 100 | 1013.8 |
| 20260502070531 | 61 | 229 | 6.1 | 15.6 | 0.00 | 0.00 | 0.00 | 100 | 1013.9 |
| 20260502070052 | 61 | 180 | 9.6 | 15.6 | 0.00 | 0.00 | 0.00 | 100 | 1013.8 |
| 20260502065531 | 61 | 182 | 7.0 | 14.8 | 0.00 | 0.00 | 0.00 | 100 | 1013.9 |
| 20260502065033 | 61 | 198 | 7.8 | 14.8 | 0.00 | 0.00 | 0.00 | 100 | 1013.9 |
| 20260502064530 | 61 | 178 | 8.7 | 13.0 | 0.00 | 0.00 | 0.00 | 100 | 1013.9 |
| 20260502064030 | 61 | 196 | 8.7 | 13.0 | 0.00 | 0.00 | 0.00 | 100 | 1014.0 |
| 20260502063530 | 61 | 188 | 7.0 | 13.0 | 0.00 | 0.00 | 0.00 | 100 | 1013.9 |
| 20260502063033 | 61 | 202 | 8.7 | 12.2 | 0.00 | 0.00 | 0.00 | 100 | 1014.1 |
| 20260502062533 | 61 | 215 | 7.8 | 13.9 | 0.00 | 0.00 | 0.00 | 100 | 1014.1 |
| 20260502062028 | 61 | 192 | 7.8 | 14.8 | 0.00 | 0.00 | 0.00 | 100 | 1014.1 |
| 20260502061527 | 61 | 188 | 8.7 | 14.8 | 0.00 | 0.00 | 0.00 | 100 | 1014.0 |
| 20260502061026 | 61 | 191 | 9.6 | 17.4 | 0.00 | 0.00 | 0.00 | 100 | 1014.1 |
| 20260502060527 | 61 | 183 | 9.6 | 18.2 | 0.00 | 0.00 | 0.00 | 100 | 1014.1 |
| 20260502060036 | 61 | 200 | 10.4 | 18.2 | 0.00 | 0.00 | 0.00 | 100 | 1014.0 |
| 20260502055524 | 61 | 238 | 8.7 | 13.9 | 0.00 | 0.00 | 0.00 | 100 | 1014.1 |
| 20260502055023 | 61 | 211 | 9.6 | 16.5 | 0.00 | 0.00 | 0.00 | 100 | 1014.1 |
| 20260502054532 | 61 | 214 | 9.6 | 14.8 | 0.00 | 0.00 | 0.00 | 100 | 1014.1 |
| 20260502054020 | 61 | 223 | 8.7 | 14.8 | 0.00 | 0.00 | 0.00 | 100 | 1014.2 |
| 20260502053519 | 61 | 220 | 7.0 | 13.9 | 0.00 | 0.00 | 0.00 | 100 | 1014.2 |
| 20260502053018 | 61 | 188 | 8.7 | 14.8 | 0.00 | 0.00 | 0.00 | 100 | 1014.3 |
| 20260502052519 | 61 | 202 | 7.0 | 14.8 | 0.00 | 0.00 | 0.00 | 100 | 1014.4 |
| 20260502052014 | 61 | 192 | 7.0 | 12.2 | 0.00 | 0.00 | 0.00 | 100 | 1014.4 |
| 20260502051513 | 62 | 187 | 7.8 | 14.8 | 0.00 | 0.00 | 0.00 | 100 | 1014.5 |
| 20260502051020 | 62 | 221 | 9.6 | 14.8 | 0.00 | 0.00 | 0.00 | 100 | 1014.5 |
| 20260502050512 | 62 | 182 | 7.0 | 13.0 | 0.00 | 0.00 | 0.00 | 100 | 1014.6 |
| 20260502050017 | 62 | 186 | 7.0 | 12.2 | 0.00 | 0.00 | 0.00 | 100 | 1014.6 |
| 20260502045510 | 62 | 182 | 7.0 | 14.8 | 0.00 | 0.00 | 0.00 | 100 | 1014.6 |
| 20260502045014 | 62 | 185 | 7.0 | 14.8 | 0.00 | 0.00 | 0.00 | 100 | 1014.6 |
| 20260502044510 | 62 | 189 | 8.7 | 14.8 | 0.00 | 0.00 | 0.00 | 100 | 1014.6 |
| 20260502044008 | 62 | 196 | 7.8 | 12.2 | 0.00 | 0.00 | 0.00 | 100 | 1014.8 |
| 20260502043513 | 62 | 176 | 7.8 | 12.2 | 0.00 | 0.00 | 0.00 | 100 | 1014.8 |
| 20260502043008 | 62 | 207 | 5.2 | 13.9 | 0.00 | 0.00 | 0.00 | 100 | 1014.7 |
| 20260502042507 | 62 | 209 | 6.1 | 13.9 | 0.00 | 0.00 | 0.00 | 100 | 1014.6 |
| 20260502042008 | 62 | 153 | 6.1 | 13.0 | 0.00 | 0.00 | 0.00 | 100 | 1014.5 |
| 20260502041519 | 62 | 182 | 4.3 | 10.4 | 0.00 | 0.00 | 0.00 | 100 | 1014.6 |
| 20260502041005 | 62 | 173 | 5.2 | 10.4 | 0.00 | 0.00 | 0.00 | 100 | 1014.6 |
| 20260502040505 | 62 | 182 | 4.3 | 11.3 | 0.00 | 0.00 | 0.00 | 100 | 1014.5 |
| 20260502040005 | 62 | 119 | 5.2 | 12.2 | 0.00 | 0.00 | 0.00 | 100 | 1014.6 |
| 20260502035505 | 62 | 172 | 6.1 | 16.5 | 0.00 | 0.00 | 0.00 | 100 | 1014.7 |
| 20260502035004 | 62 | 149 | 6.1 | 16.5 | 0.00 | 0.00 | 0.00 | 100 | 1014.6 |
| 20260502034504 | 62 | 152 | 7.8 | 13.9 | 0.00 | 0.00 | 0.00 | 100 | 1014.6 |
| 20260502034005 | 62 | 184 | 5.2 | 15.6 | 0.00 | 0.00 | 0.00 | 100 | 1014.5 |
| 20260502033503 | 62 | 172 | 7.8 | 16.5 | 0.00 | 0.00 | 0.00 | 100 | 1014.4 |
| 20260502033000 | 62 | 153 | 8.7 | 16.5 | 0.00 | 0.00 | 0.00 | 100 | 1014.3 |
| 20260502032600 | 62 | 136 | 7.8 | 13.9 | 0.00 | 0.00 | 0.00 | 100 | 1014.2 |
| 20260502032059 | 63 | 218 | 7.8 | 14.8 | 0.00 | 0.00 | 0.00 | 100 | 1014.1 |
| 20260502031558 | 63 | 152 | 7.0 | 14.8 | 0.00 | 0.00 | 0.00 | 100 | 1014.0 |
| 20260502031058 | 63 | 187 | 5.2 | 10.4 | 0.00 | 0.00 | 0.00 | 100 | 1013.9 |
| 20260502030557 | 63 | 142 | 7.0 | 17.4 | 0.00 | 0.00 | 0.00 | 100 | 1013.6 |
| 20260502030117 | 63 | 172 | 5.2 | 17.4 | 0.00 | 0.00 | 0.00 | 100 | 1013.6 |
| 20260502025557 | 64 | 190 | 7.0 | 13.9 | 0.00 | 0.00 | 0.00 | 100 | 1013.7 |
| 20260502025057 | 64 | 156 | 6.1 | 13.0 | 0.00 | 0.00 | 0.00 | 100 | 1013.5 |
| 20260502024604 | 64 | 134 | 7.0 | 15.6 | 0.00 | 0.00 | 0.00 | 100 | 1013.5 |
| 20260502024055 | 64 | 198 | 9.6 | 15.6 | 0.00 | 0.00 | 0.00 | 100 | 1013.4 |
| 20260502023554 | 64 | 181 | 7.8 | 13.0 | 0.00 | 0.00 | 0.00 | 100 | 1013.3 |
| 20260502023127 | 64 | 136 | 6.1 | 13.0 | 0.00 | 0.00 | 0.00 | 100 | 1013.2 |
| 20260502022554 | 64 | 149 | 6.1 | 13.9 | 0.00 | 0.00 | 0.00 | 100 | 1013.1 |
| 20260502022051 | 64 | 174 | 6.1 | 13.9 | 0.00 | 0.00 | 0.00 | 100 | 1013.1 |
| 20260502021552 | 64 | 105 | 7.8 | 13.9 | 0.00 | 0.00 | 0.00 | 100 | 1012.8 |
| 20260502021050 | 64 | 161 | 7.0 | 14.8 | 0.00 | 0.00 | 0.00 | 100 | 1012.8 |
| 20260502020550 | 64 | 197 | 7.8 | 14.8 | 0.00 | 0.00 | 0.00 | 100 | 1012.8 |
| 20260502020049 | 64 | 109 | 6.1 | 15.6 | 0.00 | 0.00 | 0.00 | 100 | 1012.8 |
| 20260502015552 | 64 | 142 | 7.0 | 15.6 | 0.00 | 0.00 | 0.00 | 100 | 1012.8 |
| 20260502015049 | 64 | 166 | 5.2 | 13.9 | 0.00 | 0.00 | 0.00 | 100 | 1012.6 |
| 20260502014600 | 65 | 195 | 6.1 | 10.4 | 0.00 | 0.00 | 0.00 | 100 | 1012.6 |
| 20260502014048 | 65 | 142 | 4.3 | 9.6 | 0.00 | 0.00 | 0.00 | 100 | 1012.5 |
| 20260502013548 | 65 | 130 | 4.3 | 12.2 | 0.00 | 0.00 | 0.00 | 100 | 1012.3 |
| 20260502013055 | 65 | 143 | 6.1 | 12.2 | 0.00 | 0.00 | 0.00 | 100 | 1012.3 |
| 20260502012547 | 65 | 132 | 6.1 | 14.8 | 0.00 | 0.00 | 0.00 | 100 | 1012.1 |
| 20260502012047 | 65 | 140 | 7.0 | 14.8 | 0.00 | 0.00 | 0.00 | 100 | 1012.1 |
| 20260502011603 | 65 | 182 | 3.5 | 10.4 | 0.00 | 0.00 | 0.00 | 100 | 1011.9 |
| 20260502011046 | 65 | 188 | 6.1 | 11.3 | 0.00 | 0.00 | 0.00 | 100 | 1011.9 |
| 20260502010546 | 65 | 180 | 7.0 | 11.3 | 0.00 | 0.00 | 0.00 | 100 | 1011.8 |
| 20260502010047 | 65 | 166 | 5.2 | 10.4 | 0.00 | 0.00 | 0.00 | 100 | 1011.7 |
| 20260502005546 | 65 | 178 | 7.0 | 10.4 | 0.00 | 0.00 | 0.00 | 100 | 1011.5 |
| 20260502005046 | 65 | 208 | 4.3 | 13.9 | 0.00 | 0.00 | 0.00 | 100 | 1011.5 |
| 20260502004548 | 66 | 153 | 5.2 | 14.8 | 0.00 | 0.00 | 0.00 | 100 | 1011.5 |
| 20260502004045 | 66 | 134 | 7.8 | 16.5 | 0.00 | 0.00 | 0.00 | 100 | 1011.5 |
| 20260502003544 | 66 | 150 | 5.2 | 16.5 | 0.00 | 0.00 | 0.00 | 100 | 1011.5 |
| 20260502003046 | 66 | 196 | 7.0 | 15.6 | 0.00 | 0.00 | 0.00 | 100 | 1011.4 |
| 20260502002545 | 66 | 127 | 4.3 | 12.2 | 0.00 | 0.00 | 0.00 | 100 | 1011.1 |
| 20260502002045 | 66 | 119 | 7.0 | 12.2 | 0.00 | 0.00 | 0.00 | 100 | 1010.9 |
| 20260502001553 | 67 | 175 | 6.1 | 13.0 | 0.00 | 0.00 | 0.00 | 100 | 1010.7 |
| 20260502001044 | 67 | 173 | 7.8 | 13.0 | 0.00 | 0.00 | 0.00 | 100 | 1010.6 |
| 20260502000543 | 67 | 138 | 7.0 | 18.2 | 0.00 | 0.00 | 0.00 | 100 | 1010.5 |
| 20260502000057 | 68 | 150 | 5.2 | 14.8 | 0.00 | 0.00 | 0.00 | 100 | 1010.4 |
| 20260501235542 | 68 | 128 | 6.1 | 14.8 | 0.00 | 0.00 | 0.00 | 100 | 1010.2 |
| 20260501235043 | 68 | 192 | 7.0 | 13.9 | 0.00 | 0.00 | 0.00 | 100 | 1010.1 |
| 20260501234543 | 69 | 155 | 4.3 | 10.4 | 0.00 | 0.00 | 0.00 | 100 | 1009.9 |
| 20260501234042 | 69 | 155 | 7.0 | 11.3 | 0.00 | 0.00 | 0.00 | 100 | 1009.9 |
| 20260501233543 | 69 | 158 | 6.1 | 12.2 | 0.00 | 0.00 | 0.00 | 100 | 1009.7 |
| 20260501233100 | 69 | 185 | 7.0 | 12.2 | 0.00 | 0.00 | 0.00 | 100 | 1009.6 |
| 20260501232543 | 70 | 133 | 6.1 | 11.3 | 0.00 | 0.00 | 0.00 | 100 | 1009.6 |
| 20260501232044 | 70 | 187 | 4.3 | 13.9 | 0.00 | 0.00 | 0.00 | 100 | 1009.4 |
| 20260501231550 | 70 | 180 | 7.8 | 16.5 | 0.00 | 0.00 | 0.00 | 100 | 1009.4 |
| 20260501231043 | 71 | 158 | 7.0 | 17.4 | 0.00 | 0.00 | 0.00 | 100 | 1009.5 |
| 20260501230541 | 71 | 126 | 8.7 | 16.5 | 0.00 | 0.00 | 0.00 | 100 | 1009.5 |
| 20260501230110 | 72 | 182 | 8.7 | 15.6 | 0.00 | 0.00 | 0.00 | 100 | 1009.4 |
| 20260501225540 | 72 | 189 | 4.3 | 13.0 | 0.00 | 0.00 | 0.00 | 100 | 1009.2 |
| 20260501225040 | 73 | 196 | 7.8 | 12.2 | 0.00 | 0.00 | 0.00 | 100 | 1009.2 |
| 20260501224554 | 74 | 129 | 7.0 | 13.9 | 0.00 | 0.00 | 0.00 | 100 | 1009.1 |
| 20260501224040 | 74 | 141 | 4.3 | 13.9 | 0.00 | 0.00 | 0.00 | 100 | 1009.0 |
| 20260501223540 | 75 | 232 | 6.1 | 10.4 | 0.00 | 0.00 | 0.00 | 100 | 1008.9 |
| 20260501223043 | 74 | 148 | 5.2 | 13.0 | 0.00 | 0.00 | 0.00 | 100 | 1008.9 |
| 20260501222541 | 74 | 190 | 6.1 | 14.8 | 0.00 | 0.00 | 0.00 | 100 | 1008.9 |
| 20260501222041 | 74 | 199 | 6.1 | 13.9 | 0.00 | 0.00 | 0.00 | 100 | 1008.9 |
| 20260501221539 | 75 | 226 | 7.0 | 14.8 | 0.00 | 0.00 | 0.00 | 100 | 1008.9 |
| 20260501221038 | 75 | 217 | 6.1 | 20.9 | 0.00 | 0.00 | 0.00 | 100 | 1008.8 |
| 20260501220539 | 75 | 284 | 2.6 | 19.1 | 0.00 | 0.00 | 0.00 | 100 | 1008.8 |
| 20260501220041 | 74 | 189 | 5.2 | 19.1 | 0.00 | 0.00 | 0.00 | 100 | 1008.8 |
| 20260501215540 | 74 | 249 | 8.7 | 18.2 | 0.00 | 0.00 | 0.00 | 100 | 1008.7 |
| 20260501215038 | 74 | 261 | 4.3 | 15.6 | 0.00 | 0.00 | 0.00 | 100 | 1008.6 |
| 20260501214538 | 74 | 178 | 7.8 | 18.2 | 0.00 | 0.00 | 0.00 | 100 | 1008.7 |
| 20260501214036 | 76 | 185 | 7.0 | 15.6 | 0.00 | 0.00 | 0.00 | 100 | 1008.5 |
| 20260501213536 | 76 | 238 | 4.3 | 14.8 | 0.00 | 0.00 | 0.00 | 100 | 1008.6 |
| 20260501213036 | 76 | 184 | 2.6 | 13.0 | 0.00 | 0.00 | 0.00 | 100 | 1008.6 |
| 20260501212535 | 76 | 167 | 4.3 | 14.8 | 0.00 | 0.00 | 0.00 | 100 | 1008.6 |
| 20260501212035 | 75 | 230 | 7.8 | 14.8 | 0.00 | 0.00 | 0.00 | 100 | 1008.7 |
| 20260501211537 | 76 | 212 | 4.3 | 12.2 | 0.00 | 0.00 | 0.00 | 100 | 1008.9 |
| 20260501211037 | 76 | 237 | 6.1 | 12.2 | 0.00 | 0.00 | 0.00 | 100 | 1008.9 |
| 20260501210534 | 76 | 190 | 4.3 | 16.5 | 0.00 | 0.00 | 0.00 | 100 | 1009.0 |
| 20260501210037 | 76 | 204 | 7.0 | 13.0 | 0.00 | 0.00 | 0.00 | 100 | 1009.1 |
| 20260501205536 | 75 | 247 | 6.1 | 15.6 | 0.00 | 0.00 | 0.00 | 100 | 1009.1 |
| 20260501205034 | 75 | 233 | 9.6 | 15.6 | 0.00 | 0.00 | 0.00 | 100 | 1009.2 |
| 20260501204535 | 75 | 200 | 7.8 | 15.6 | 0.00 | 0.00 | 0.00 | 100 | 1009.2 |
| 20260501204034 | 75 | 223 | 7.8 | 14.8 | 0.00 | 0.00 | 0.00 | 100 | 1009.1 |
| 20260501203532 | 74 | 181 | 5.2 | 14.8 | 0.00 | 0.00 | 0.00 | 100 | 1009.2 |
| 20260501203032 | 75 | 163 | 6.1 | 13.9 | 0.00 | 0.00 | 0.00 | 100 | 1009.2 |
| 20260501202532 | 75 | 197 | 5.2 | 12.2 | 0.00 | 0.00 | 0.00 | 100 | 1009.1 |
| 20260501202033 | 75 | 155 | 5.2 | 13.0 | 0.00 | 0.00 | 0.00 | 100 | 1009.1 |
| 20260501201530 | 74 | 141 | 4.3 | 10.4 | 0.00 | 0.00 | 0.00 | 100 | 1009.2 |
| 20260501201032 | 75 | 170 | 4.3 | 13.0 | 0.00 | 0.00 | 0.00 | 100 | 1009.2 |
| 20260501200532 | 75 | 107 | 6.1 | 13.0 | 0.00 | 0.00 | 0.00 | 100 | 1009.2 |
| 20260501200030 | 76 | 172 | 4.3 | 10.4 | 0.00 | 0.00 | 0.00 | 100 | 1009.4 |
| 20260501195529 | 77 | 189 | 6.1 | 13.0 | 0.00 | 0.00 | 0.00 | 100 | 1009.4 |
| 20260501195029 | 77 | 138 | 7.0 | 13.9 | 0.00 | 0.00 | 0.00 | 100 | 1009.6 |